World > North America > United States > Missouri > Waldron  

Waldron, MO Hourly Weather Updates

Feedback E-mail the Weather

Quick Clicks

Waldron, MO Weather Maps

°F °C°F °C
Waldron Weather Map
UTC Time: 4/16/2024, 20:39
Your Time:

Waldron, MO Regional Weather

Expires:202404162100;;858468
ASUS43 KEAX 162015
RWREAX

WEATHER ROUNDUP FOR EASTERN KANSAS AND NORTHWEST MISSOURI
NATIONAL WEATHER SERVICE KANSAS CITY/PLEASANT HILL MO
300 PM CDT TUE APR 16 2024


KSZ040-057-103>105-MOZ028-029-037-043-162100-
...KANSAS CITY METROPOLITAN AREA...
  
CITY           SKY/WX    TMP DP  RH WIND       PRES   REMARKS
K.C. INTL      MOSUNNY   77  41  27 SW30G51   29.45R                  
K.C. DOWNTOWN  SUNNY     80  38  22 SW35G45   29.47S                  
LEES SUMMIT    SUNNY     81  35  19 SW36G54   29.50R                  
OLATHE - IXD   SUNNY     80  41  24 SW32G48   29.51R                  
OLATHE - OJC   SUNNY     77  40  26 SW23G46   29.51R                  
LAWRENCE       SUNNY     80  43  26 SW31G48   29.49R                  

$$
 

SKY/WX - Weather  TMP - Temperature  DP - Dew Point  RH - Humidity
WIND - Wind Direction/Speed PRES - Barometric Pressure VSB - Visibility
WCI - Wind Chill Index E13G22 Wind - East Wind 13 mph/Gusts of 22 mph

Trending Headlines

Trending Entertainment Headlines

Waldron Radar Loop

Use the map search tool if you want to place a location marker on the radar map...

Waldron Quick Facts

National Two Day Weather Forecast


E-mail the Waldron Weather Forecast

Voice your opinion or tell us about page issues...